Weather in Yasenskaya

Russia / Krasnodar Krai     46°21′27″N   38°16′07″E
temp.,
°C
wind,
m/s
gust,
m/s
humid.,
%
clouds,
%
prec.,
mm/h
press.,
hPa
HPBL,
m
19 april, mon
mon1900:00+9ne2294100 0.0 101633
03:00+9ne1194100 0.1 101518
06:00+9nne2396100 0.3 101563
09:00+9ene3494100 0.8 1014110
12:00+10ene2293100 0.3 1014105
15:00+10ene1194100 0.6 101464
18:00+11ese229395 0.0 101482
21:00+10ese3395100 0.0 101321
20 april, tue
tue2000:00+10e4597100 0.0 101094
03:00+10e7910082 2.9 1007171
06:00+10e61099100 6.1 1005168
09:00+11ssw5899100 8.3 1004191
12:00+11ssw8149452 0.6 1004357
15:00+12sw1318803 0.6 1004635
18:00+10wsw13189027 0.0 1006700
21:00+9sw111590100 0.0 1010629
21 april, wed
wed2100:00+10sw101488100 0.1 1012427
03:00+10sw91389100 0.1 1014474
06:00+10sw71189100 0.1 1015371
09:00+10wsw698819 0.1 1016311
12:00+10wsw67875 0.0 1018339
15:00+10w568227 0.0 1018291
18:00+11wsw45795 0.0 1019146
21:00+10sw45785 0.0 102056
22 april, thu
thu2200:00+10sw45885 0.0 102084
03:00+9ssw46905 0.0 1021141
06:00+9sw349126 0.0 1021106
09:00+10ssw34865 0.0 1023187
12:00+11wsw45845 0.1 1023293
15:00+11w45800 0.1 1023262
18:00+12w23770 0.0 1023102
21:00+11wsw23782 0.0 102315
23 april, fri
fri2300:00+11ssw33782 0.0 102332
03:00+10sw34820 0.0 102346
06:00+10ssw34830 0.0 102365
09:00+11ssw34785 0.0 1023151
12:00+12w3475100 0.0 1023242
15:00+12w447297 0.0 1022251
18:00+12w22710 0.0 102196
21:00+11wsw117470 0.0 102110